Find Starlink 4786

NORAD ID: 55393 Int'l Des: 2023-014 Owner: SPXS Country: US Constellation: starlink operational
LEOCIRCULAR

当前视图

正在加载3D地球...

About Starlink 4786

Starlink 4786 (NORAD 55393) is a starlink constellation satellite (v1.5) launched Jan 31, 2023 by SPXS of US. It operates in LEO, CIRCULAR orbit with a mass of 305.00 kg.

即将过境

Passes for default location (London). Set your location on the main map for personalized predictions.

高度历史

Loading altitude history...

两行轨道根数

1 55393U 23014C 26262.79712116 -.00000050 00000-0 36184-5 0 9990
2 55393 69.9974 294.9414 0003722 271.0076 89.0657 14.98331363201134
Epoch: Sep 19, 2026 • Age: 20 hours

当前状态

高度 594.4 km
远地点 / 近地点 N/A
速度 7.56 km/s
星下点 -67.54°S, 58.28°W
发射日期 Jan 31, 2023
运行时间 3.6 years
类型 internet

技术详情

分类 Payload
质量 305.00 kg
干质量 290.00 kg
长度 0.20 m
跨度 9.00 m
形状 ? Box + pan
制造商 SPXS
平台类型 Starlink
阶段状态 In Orbit
所有者/国家 SPXS/US

Most Searched